This is the latest recevied weather packets stored in our database for station/object NR6G-5. If no packets are shown the sender has not sent any weather packets the latest 1 day(s).
| Time | Temp. | Humidity | Pressure | Rain* | Wind** | Luminosity | Snow |
|---|---|---|---|---|---|---|---|
| 1778031191 | 16.11° C | 74% | 1013.9 hPa | 0 mm | 0 m/s | - | - |
| 1778030590 | 16.11° C | 74% | 1014 hPa | 0 mm | 1.34 m/s, 94° | - | - |
| 1778030290 | 16.11° C | 74% | 1014 hPa | 0 mm | 1.34 m/s, 94° | - | - |
| 1778029990 | 16.11° C | 76% | 1014 hPa | 0 mm | 1.34 m/s, 100° | - | - |
| 1778029690 | 16.11° C | 74% | 1014 hPa | 0 mm | 1.79 m/s, 86° | - | - |
| 1778029390 | 16.11° C | 75% | 1014 hPa | 0 mm | 1.79 m/s, 92° | - | - |
| 1778029090 | 16.67° C | 74% | 1014 hPa | 0 mm | 2.24 m/s, 93° | - | - |
| 1778028490 | 16.67° C | 74% | 1013.9 hPa | 0 mm | 1.79 m/s, 94° | - | - |
| 1778028191 | 16.67° C | 73% | 1013.9 hPa | 0 mm | 0.89 m/s, 124° | - | - |
| 1778027891 | 16.67° C | 72% | 1013.9 hPa | 0 mm | 2.24 m/s, 97° | - | - |
| 1778027590 | 17.22° C | 70% | 1014 hPa | 0 mm | 1.34 m/s, 104° | - | - |
| 1778027290 | 17.22° C | 68% | 1014 hPa | 0 mm | 0.89 m/s, 121° | - | - |
| 1778026991 | 17.22° C | 68% | 1013.9 hPa | 0 mm | 0.45 m/s, 138° | - | - |
| 1778026691 | 17.22° C | 68% | 1014 hPa | 0 mm | 0.89 m/s, 122° | - | - |
| 1778026047 | 17.22° C | 68% | 1013.9 hPa | 0 mm | 1.34 m/s, 138° | - | - |
| 1778025746 | 17.22° C | 68% | 1013.8 hPa | 0 mm | 2.24 m/s, 151° | - | - |
| 1778025445 | 17.22° C | 69% | 1013.7 hPa | 0 mm | 2.24 m/s, 149° | - | - |
| 1778025144 | 16.67° C | 71% | 1013.7 hPa | 0 mm | 1.79 m/s, 147° | - | - |
| 1778024844 | 16.67° C | 73% | 1013.8 hPa | 0 mm | 1.34 m/s, 150° | - | - |
| 1778024545 | 16.11° C | 74% | 1013.9 hPa | 0 mm | 1.79 m/s, 158° | - | - |
| 1778024244 | 16.11° C | 73% | 1013.9 hPa | 0 mm | 1.34 m/s, 144° | - | - |
| 1778023945 | 16.11° C | 75% | 1013.9 hPa | 0 mm | 1.79 m/s, 169° | - | - |
| 1778023645 | 16.11° C | 75% | 1014 hPa | 0 mm | 1.79 m/s, 157° | - | - |
| 1778023344 | 16.11° C | 75% | 1014 hPa | 0 mm | 1.34 m/s, 144° | - | - |
| 1778023045 | 16.11° C | 74% | 1014 hPa | 0 mm | 1.79 m/s, 145° | - | - |
* Rain latest hour (hover to see other rain measurements)
** Current wind speed in m/s (hover to see current wind gust speed)